Overview Statistics Trail Chart Weather Telemetry Raw packets
 

This is the latest recevied weather packets stored in our database for station/object IZ8FMH-11. If no packets are shown the sender has not sent any weather packets the latest 10 day(s).

<< 1 2 3 4 5 >>
Time Temp. Humidity Pressure Rain* Wind** Luminosity Snow
1788570303 27.22° C 40% 1014.8 hPa - - - -
1788568503 27.22° C 33% 1015 hPa - - - -
1788566705 27.22° C 34% 1015.2 hPa - - - -
1788564905 27.78° C 32% 1015.2 hPa - - - -
1788563105 27.78° C 32% 1015.4 hPa - - - -
1788561305 27.78° C 32% 1015.5 hPa - - - -
1788559505 28.33° C 33% 1015.5 hPa - - - -
1788557704 28.33° C 32% 1015.5 hPa - - - -
1788555904 28.33° C 33% 1015.4 hPa - - - -
1788554104 28.89° C 33% 1015.6 hPa - - - -
1788552304 28.89° C 33% 1015.7 hPa - - - -
1788550504 29.44° C 34% 1015.9 hPa - - - -
1788548704 29.44° C 36% 1015.7 hPa - - - -
1788546904 30° C 43% 1015.6 hPa - - - -
1788545104 30.56° C 45% 1015.2 hPa - - - -
1788543304 30.56° C 51% 1015 hPa - - - -
1788541504 31.11° C 49% 1014.7 hPa - - - -
1788539704 31.11° C 48% 1014.5 hPa - - - -
1788537904 31.11° C 46% 1014.5 hPa - - - -
1788536103 31.67° C 44% 1014.3 hPa - - - -
1788534303 31.67° C 45% 1014.3 hPa - - - -
1788532503 31.67° C 44% 1014.3 hPa - - - -
1788530703 31.67° C 44% 1014.3 hPa - - - -
1788528903 31.67° C 43% 1014.4 hPa - - - -
1788527103 31.11° C 41% 1014.5 hPa - - - -

* Rain since midnight (hover to see other rain measurements)
** Current wind speed in m/s (hover to see current wind gust speed)